Language: 


Des rapports , des résumés tant et plus, au choix de chacun....


Données statistiques de la station
Quotidien Rapport Aout 19, 2017 Unités:  Métrique    Anglais   les deux
« Précédent Jour
Suivant Jour »
Quotidien Hebdomadaire Mensuel Annuel Actuel
  Haut: Bas: Moyen:
Température: 22.4 °C 0.0 °C 13.5 °C
Pt de rosée: 16.0 °C 9.0 °C 12.2 °C
Humidité: 97 % 0 % 55 %
Vitesse du vent: 37.8 km/h 0.0 km/h 12 km/h
Rafales: 38.1 km/h - -
Vent:- - WSW
Pression: 1020.9 hPa 1014.1 hPa -
Précipitation: 0.5 mm    
Historical Graphs
 
 
Données statistiques pour Aout 19, 2017
Heure Température Point de rosée Pression Vent Vitesse du vent Refales Humidité Pluie (taux horaire)
00:04 13.3 °C 12.0 °C 1014.1 hPa Calm   6.9 km/h 87 % 0.0 mm
00:09 13.3 °C 12.0 °C 1014.1 hPa WSW 4.7 km/h 10.5 km/h 87 % 0.0 mm
00:14 13.3 °C 12.0 °C 1014.1 hPa Calm   10.5 km/h 87 % 0.0 mm
00:19 13.3 °C 12.0 °C 1015.1 hPa Calm   10.5 km/h 87 % 0.0 mm
00:21 13.3 °C 12.0 °C 1015.1 hPa SW 6.9 km/h 10.5 km/h 87 % 0.0 mm
00:26 13.3 °C 12.0 °C 1015.1 hPa SW 5.8 km/h 8.7 km/h 87 % 0.0 mm
00:31 13.3 °C 12.0 °C 1015.1 hPa SW 4.7 km/h 9.7 km/h 87 % 0.0 mm
00:36 13.3 °C 12.0 °C 1015.1 hPa SSW 5.8 km/h 9.7 km/h 87 % 0.0 mm
00:41 13.3 °C 12.0 °C 1015.1 hPa SSW 6.9 km/h 9.7 km/h 87 % 0.0 mm
00:46 13.3 °C 12.0 °C 1015.1 hPa SSW 7.9 km/h 10.1 km/h 87 % 0.0 mm
00:51 13.3 °C 12.0 °C 1015.1 hPa SW 4.0 km/h 10.1 km/h 87 % 0.0 mm
00:56 13.3 °C 12.0 °C 1015.1 hPa Calm   8.7 km/h 87 % 0.0 mm
01:01 13.3 °C 12.0 °C 1015.1 hPa Calm   8.7 km/h 87 % 0.0 mm
01:07 13.3 °C 12.0 °C 1015.1 hPa WSW 7.9 km/h 9.3 km/h 87 % 0.0 mm
01:12 13.3 °C 12.0 °C 1015.1 hPa SSW 5.8 km/h 9.0 km/h 87 % 0.0 mm
01:17 13.3 °C 12.0 °C 1015.1 hPa Calm   9.0 km/h 87 % 0.0 mm
01:18 13.3 °C 12.0 °C 1015.1 hPa Calm   9.0 km/h 87 % 0.0 mm
01:23 13.3 °C 12.0 °C 1015.1 hPa SSW 6.9 km/h 9.3 km/h 87 % 0.0 mm
01:28 13.3 °C 12.0 °C 1015.1 hPa SSW 7.6 km/h 9.3 km/h 87 % 0.0 mm
01:33 13.3 °C 12.0 °C 1015.1 hPa WSW 9.3 km/h 9.3 km/h 87 % 0.0 mm
01:38 13.3 °C 12.0 °C 1015.1 hPa SSW 6.1 km/h 11.6 km/h 87 % 0.0 mm
01:43 13.3 °C 12.0 °C 1015.1 hPa SW 9.0 km/h 11.6 km/h 87 % 0.0 mm
01:48 13.3 °C 12.0 °C 1015.1 hPa SW 9.3 km/h 13.7 km/h 87 % 0.0 mm
01:53 13.3 °C 12.0 °C 1015.1 hPa South 8.7 km/h 13.7 km/h 87 % 0.0 mm
01:58 13.3 °C 12.0 °C 1015.1 hPa SSW 7.2 km/h 10.1 km/h 87 % 0.0 mm
02:03 13.3 °C 12.0 °C 1015.1 hPa SSW 6.9 km/h 12.2 km/h 87 % 0.0 mm
02:08 13.3 °C 12.0 °C 1015.1 hPa SSW 9.3 km/h 12.2 km/h 87 % 0.0 mm
02:13 13.3 °C 12.0 °C 1015.1 hPa SW 5.0 km/h 9.3 km/h 87 % 0.0 mm
02:18 13.3 °C 12.0 °C 1015.1 hPa SW 6.1 km/h 10.5 km/h 87 % 0.0 mm
02:23 13.3 °C 12.0 °C 1015.1 hPa WSW 5.5 km/h 10.5 km/h 87 % 0.0 mm
02:28 13.3 °C 12.0 °C 1015.1 hPa SSW 7.9 km/h 10.5 km/h 87 % 0.0 mm
02:33 13.3 °C 12.0 °C 1014.1 hPa SSW 10.5 km/h 12.6 km/h 87 % 0.0 mm
02:38 13.3 °C 12.0 °C 1014.1 hPa SSW 5.8 km/h 12.6 km/h 87 % 0.0 mm
02:43 13.3 °C 12.0 °C 1014.1 hPa SW 9.7 km/h 11.6 km/h 87 % 0.0 mm
02:48 13.3 °C 12.0 °C 1014.1 hPa SW 6.1 km/h 11.6 km/h 87 % 0.0 mm
02:53 13.3 °C 12.0 °C 1014.1 hPa SSW 5.0 km/h 10.5 km/h 87 % 0.0 mm
02:58 13.3 °C 12.0 °C 1014.1 hPa SW 9.7 km/h 10.5 km/h 87 % 0.0 mm
03:03 0.0 °C 12.0 °C 1014.1 hPa SSW 9.3 km/h 9.3 km/h 0 % 0.0 mm
03:08 0.0 °C 12.0 °C 1014.1 hPa South 6.9 km/h 9.3 km/h 0 % 0.0 mm
03:09 0.0 °C 12.0 °C 1014.1 hPa SW 5.0 km/h 9.3 km/h 0 % 0.0 mm
03:14 0.0 °C 12.0 °C 1014.1 hPa SSW 8.7 km/h 14.0 km/h 0 % 0.0 mm
03:19 0.0 °C 12.0 °C 1014.1 hPa SW 5.8 km/h 14.0 km/h 0 % 0.0 mm
03:24 0.0 °C 12.0 °C 1014.1 hPa South 5.8 km/h 11.9 km/h 0 % 0.0 mm
03:29 0.0 °C 12.0 °C 1014.1 hPa SSW 6.1 km/h 10.5 km/h 0 % 0.0 mm
03:34 0.0 °C 12.0 °C 1014.1 hPa South 5.0 km/h 10.5 km/h 0 % 0.0 mm
03:39 0.0 °C 12.0 °C 1014.1 hPa SW 9.3 km/h 10.5 km/h 0 % 0.0 mm
03:44 0.0 °C 12.0 °C 1014.1 hPa WSW 6.1 km/h 9.7 km/h 0 % 0.0 mm
03:49 0.0 °C 12.0 °C 1014.1 hPa SSW 8.7 km/h 12.2 km/h 0 % 0.0 mm
03:54 0.0 °C 12.0 °C 1014.1 hPa Calm   12.2 km/h 0 % 0.0 mm
03:55 0.0 °C 12.0 °C 1014.1 hPa South 2.1 km/h 12.2 km/h 0 % 0.0 mm
04:00 0.0 °C 12.0 °C 1014.1 hPa Calm   9.0 km/h 0 % 0.0 mm
04:05 0.0 °C 12.0 °C 1014.1 hPa South 1.8 km/h 9.3 km/h 0 % 0.0 mm
04:10 0.0 °C 12.0 °C 1014.1 hPa SSW 13.7 km/h 13.7 km/h 0 % 0.0 mm
04:15 0.0 °C 12.0 °C 1014.1 hPa SSW 4.7 km/h 13.7 km/h 0 % 0.0 mm
04:20 0.0 °C 12.0 °C 1014.1 hPa SSW 9.3 km/h 13.7 km/h 0 % 0.0 mm
04:25 0.0 °C 12.0 °C 1014.1 hPa SSW 2.1 km/h 11.9 km/h 0 % 0.0 mm
04:30 0.0 °C 12.0 °C 1014.1 hPa South 5.8 km/h 9.7 km/h 0 % 0.0 mm
04:35 0.0 °C 12.0 °C 1014.1 hPa SSW 9.3 km/h 13.0 km/h 0 % 0.0 mm
04:40 0.0 °C 12.0 °C 1014.1 hPa WSW 9.0 km/h 13.0 km/h 0 % 0.0 mm
04:45 0.0 °C 12.0 °C 1014.1 hPa WSW 8.7 km/h 12.6 km/h 0 % 0.0 mm
04:50 0.0 °C 12.0 °C 1014.1 hPa SSW 6.1 km/h 14.0 km/h 0 % 0.0 mm
04:55 0.0 °C 12.0 °C 1014.1 hPa SSW 5.0 km/h 14.0 km/h 0 % 0.0 mm
05:00 0.0 °C 12.0 °C 1014.1 hPa WSW 5.0 km/h 15.4 km/h 0 % 0.0 mm
05:02 0.0 °C 12.0 °C 1014.1 hPa SSW 6.1 km/h 15.4 km/h 0 % 0.0 mm
05:08 0.0 °C 12.0 °C 1014.1 hPa SW 9.3 km/h 15.4 km/h 0 % 0.0 mm
05:14 0.0 °C 12.0 °C 1014.1 hPa WSW 9.0 km/h 11.1 km/h 0 % 0.0 mm
05:19 0.0 °C 12.0 °C 1014.1 hPa SSW 6.1 km/h 13.7 km/h 0 % 0.0 mm
05:21 0.0 °C 12.0 °C 1014.1 hPa South 5.5 km/h 13.7 km/h 0 % 0.0 mm
05:22 0.0 °C 12.0 °C 1014.1 hPa South 9.0 km/h 13.7 km/h 0 % 0.0 mm
05:24 0.0 °C 12.0 °C 1014.1 hPa SSW 6.9 km/h 11.6 km/h 0 % 0.0 mm
05:29 0.0 °C 12.0 °C 1014.1 hPa South 5.0 km/h 10.5 km/h 0 % 0.0 mm
05:34 0.0 °C 12.0 °C 1014.1 hPa SSW 8.7 km/h 11.9 km/h 0 % 0.0 mm
05:39 0.0 °C 12.0 °C 1014.1 hPa SSW 9.3 km/h 12.6 km/h 0 % 0.0 mm
05:44 0.0 °C 12.0 °C 1014.1 hPa WSW 6.9 km/h 14.0 km/h 0 % 0.0 mm
05:49 0.0 °C 12.0 °C 1014.1 hPa SW 7.9 km/h 14.0 km/h 0 % 0.0 mm
05:54 0.0 °C 12.0 °C 1014.1 hPa SSW 12.2 km/h 14.0 km/h 0 % 0.0 mm
05:59 0.0 °C 12.0 °C 1014.1 hPa SW 4.0 km/h 12.2 km/h 0 % 0.0 mm
06:04 0.0 °C 12.0 °C 1014.1 hPa SSW 10.1 km/h 12.2 km/h 0 % 0.0 mm
06:10 0.0 °C 12.0 °C 1014.1 hPa SW 4.7 km/h 14.0 km/h 0 % 0.0 mm
06:15 0.0 °C 12.0 °C 1014.1 hPa SSW 9.3 km/h 14.0 km/h 0 % 0.0 mm
06:20 0.0 °C 12.0 °C 1014.1 hPa SSW 9.7 km/h 16.6 km/h 0 % 0.0 mm
06:25 0.0 °C 12.0 °C 1014.1 hPa SSW 10.1 km/h 16.6 km/h 0 % 0.0 mm
06:30 0.0 °C 12.0 °C 1014.1 hPa SSW 13.0 km/h 16.6 km/h 0 % 0.0 mm
06:35 0.0 °C 12.0 °C 1014.1 hPa WSW 6.1 km/h 15.4 km/h 0 % 0.0 mm
06:40 0.0 °C 12.0 °C 1014.1 hPa WSW 9.0 km/h 17.2 km/h 0 % 0.0 mm
06:45 0.0 °C 12.0 °C 1015.1 hPa WSW 14.0 km/h 17.2 km/h 0 % 0.0 mm
06:50 0.0 °C 12.0 °C 1015.1 hPa SSW 14.0 km/h 16.9 km/h 0 % 0.0 mm
06:55 0.0 °C 12.0 °C 1015.1 hPa WSW 12.6 km/h 16.9 km/h 0 % 0.0 mm
07:00 0.0 °C 12.0 °C 1015.1 hPa WSW 10.1 km/h 16.9 km/h 0 % 0.0 mm
07:05 0.0 °C 12.0 °C 1015.1 hPa SW 7.9 km/h 16.9 km/h 0 % 0.0 mm
07:10 0.0 °C 12.0 °C 1015.1 hPa SSW 11.6 km/h 15.8 km/h 0 % 0.0 mm
07:15 0.0 °C 12.0 °C 1015.1 hPa SW 12.2 km/h 16.9 km/h 0 % 0.0 mm
07:20 0.0 °C 12.0 °C 1015.1 hPa SSW 9.0 km/h 16.9 km/h 0 % 0.0 mm
07:25 0.0 °C 12.0 °C 1015.1 hPa SSW 6.1 km/h 13.7 km/h 0 % 0.0 mm
07:30 0.0 °C 12.0 °C 1015.1 hPa SW 5.5 km/h 14.0 km/h 0 % 0.0 mm
07:35 0.0 °C 12.0 °C 1015.1 hPa WSW 7.2 km/h 14.0 km/h 0 % 0.0 mm
07:40 0.0 °C 12.0 °C 1015.1 hPa Calm   10.1 km/h 0 % 0.0 mm
07:45 0.0 °C 12.0 °C 1015.1 hPa SW 6.1 km/h 9.7 km/h 0 % 0.0 mm
07:50 0.0 °C 12.0 °C 1015.1 hPa WSW 7.9 km/h 11.6 km/h 0 % 0.0 mm
07:55 0.0 °C 12.0 °C 1015.1 hPa SSW 4.7 km/h 14.8 km/h 0 % 0.0 mm
08:00 0.0 °C 12.0 °C 1015.1 hPa SW 10.5 km/h 14.8 km/h 0 % 0.0 mm
08:05 0.0 °C 12.0 °C 1015.1 hPa SSW 10.5 km/h 13.0 km/h 0 % 0.0 mm
08:10 0.0 °C 12.0 °C 1015.1 hPa WSW 6.4 km/h 13.0 km/h 0 % 0.0 mm
08:15 0.0 °C 12.0 °C 1015.1 hPa WSW 8.7 km/h 12.2 km/h 0 % 0.0 mm
08:20 0.0 °C 12.0 °C 1015.1 hPa SW 3.2 km/h 12.2 km/h 0 % 0.0 mm
08:25 0.0 °C 12.0 °C 1015.1 hPa SW 4.3 km/h 9.7 km/h 0 % 0.0 mm
08:31 15.6 °C 15.0 °C 1015.1 hPa SSW 10.5 km/h 10.5 km/h 97 % 0.0 mm
08:36 15.8 °C 15.0 °C 1015.1 hPa WSW 7.9 km/h 10.5 km/h 96 % 0.0 mm
08:41 16.1 °C 16.0 °C 1015.1 hPa SSW 8.7 km/h 10.5 km/h 96 % 0.0 mm
08:46 16.6 °C 16.0 °C 1016.1 hPa Calm   9.7 km/h 95 % 0.0 mm
08:51 16.6 °C 16.0 °C 1016.1 hPa WSW 4.3 km/h 9.3 km/h 95 % 0.0 mm
08:56 17.0 °C 16.0 °C 1016.1 hPa WSW 7.9 km/h 9.3 km/h 93 % 0.0 mm
09:01 17.2 °C 16.0 °C 1016.1 hPa WSW 7.9 km/h 9.3 km/h 92 % 0.0 mm
09:06 16.8 °C 15.0 °C 1016.1 hPa WSW 3.2 km/h 7.9 km/h 91 % 0.0 mm
09:11 16.8 °C 15.0 °C 1016.1 hPa West 9.3 km/h 12.6 km/h 91 % 0.0 mm
09:16 16.7 °C 15.0 °C 1016.1 hPa WSW 7.9 km/h 12.6 km/h 91 % 0.0 mm
09:21 17.1 °C 15.0 °C 1016.1 hPa WSW 10.1 km/h 13.0 km/h 90 % 0.0 mm
09:26 17.3 °C 15.0 °C 1016.1 hPa WSW 8.7 km/h 15.8 km/h 88 % 0.0 mm
09:31 17.1 °C 15.0 °C 1016.1 hPa WSW 13.7 km/h 15.8 km/h 87 % 0.0 mm
09:36 17.5 °C 16.0 °C 1016.1 hPa WSW 12.6 km/h 15.8 km/h 87 % 0.0 mm
09:41 17.7 °C 16.0 °C 1016.1 hPa West 10.1 km/h 14.0 km/h 87 % 0.0 mm
09:46 17.5 °C 15.0 °C 1016.1 hPa West 10.5 km/h 19.5 km/h 86 % 0.0 mm
09:51 17.8 °C 15.0 °C 1016.1 hPa West 10.5 km/h 19.5 km/h 86 % 0.0 mm
09:56 17.8 °C 15.0 °C 1016.1 hPa WSW 9.3 km/h 15.4 km/h 85 % 0.0 mm
10:01 18.2 °C 16.0 °C 1016.8 hPa WSW 12.2 km/h 14.8 km/h 85 % 0.0 mm
10:06 18.3 °C 15.0 °C 1016.8 hPa West 12.6 km/h 15.8 km/h 82 % 0.0 mm
10:11 17.9 °C 15.0 °C 1016.8 hPa WSW 9.7 km/h 19.5 km/h 81 % 0.0 mm
10:16 17.7 °C 15.0 °C 1016.8 hPa West 7.9 km/h 19.5 km/h 82 % 0.0 mm
10:21 17.6 °C 14.0 °C 1016.8 hPa West 10.5 km/h 16.9 km/h 81 % 0.0 mm
10:26 18.3 °C 15.0 °C 1016.8 hPa WNW 14.3 km/h 16.9 km/h 80 % 0.0 mm
10:31 18.3 °C 15.0 °C 1016.8 hPa West 6.9 km/h 16.6 km/h 79 % 0.0 mm
10:37 17.7 °C 14.0 °C 1016.8 hPa West 10.5 km/h 17.2 km/h 79 % 0.0 mm
10:42 18.4 °C 15.0 °C 1016.8 hPa WSW 6.4 km/h 17.2 km/h 80 % 0.0 mm
10:47 18.6 °C 15.0 °C 1016.8 hPa West 12.6 km/h 17.7 km/h 78 % 0.0 mm
10:52 18.0 °C 14.0 °C 1016.8 hPa WSW 9.3 km/h 17.7 km/h 76 % 0.0 mm
10:57 17.9 °C 14.0 °C 1016.8 hPa WNW 9.7 km/h 15.4 km/h 77 % 0.0 mm
11:02 18.1 °C 14.0 °C 1016.8 hPa WSW 9.3 km/h 20.9 km/h 77 % 0.0 mm
11:07 19.0 °C 15.0 °C 1016.8 hPa SSW 9.3 km/h 20.9 km/h 79 % 0.0 mm
11:12 19.7 °C 16.0 °C 1016.8 hPa West 15.4 km/h 15.4 km/h 79 % 0.0 mm
11:17 20.0 °C 16.0 °C 1016.8 hPa WSW 8.7 km/h 15.4 km/h 77 % 0.0 mm
11:22 20.2 °C 16.0 °C 1016.8 hPa WNW 13.7 km/h 16.6 km/h 74 % 0.0 mm
11:27 19.4 °C 14.0 °C 1016.8 hPa WSW 10.5 km/h 16.6 km/h 73 % 0.0 mm
11:32 18.9 °C 14.0 °C 1016.1 hPa West 14.3 km/h 16.3 km/h 72 % 0.0 mm
11:37 19.3 °C 14.0 °C 1016.1 hPa West 7.9 km/h 16.3 km/h 72 % 0.0 mm
11:42 20.0 °C 15.0 °C 1016.1 hPa West 15.1 km/h 17.7 km/h 71 % 0.0 mm
11:47 20.2 °C 14.0 °C 1016.8 hPa West 12.6 km/h 27.0 km/h 69 % 0.0 mm
11:52 20.3 °C 14.0 °C 1016.8 hPa West 24.5 km/h 27.0 km/h 68 % 0.0 mm
11:57 20.7 °C 14.0 °C 1016.8 hPa WSW 8.7 km/h 24.8 km/h 66 % 0.0 mm
12:02 21.0 °C 15.0 °C 1016.8 hPa West 14.0 km/h 24.8 km/h 67 % 0.0 mm
12:07 20.8 °C 14.0 °C 1016.8 hPa WSW 8.7 km/h 24.8 km/h 65 % 0.0 mm
12:13 20.7 °C 14.0 °C 1016.8 hPa West 14.3 km/h 23.8 km/h 65 % 0.0 mm
12:18 21.0 °C 14.0 °C 1016.1 hPa West 6.1 km/h 16.9 km/h 65 % 0.0 mm
12:23 20.3 °C 13.0 °C 1016.1 hPa West 9.0 km/h 25.6 km/h 64 % 0.0 mm
12:28 19.8 °C 13.0 °C 1016.1 hPa WSW 19.5 km/h 25.6 km/h 65 % 0.0 mm
12:33 19.4 °C 13.0 °C 1016.8 hPa West 11.9 km/h 24.8 km/h 65 % 0.0 mm
12:38 19.2 °C 13.0 °C 1016.8 hPa West 17.2 km/h 24.8 km/h 66 % 0.0 mm
12:43 19.2 °C 13.0 °C 1016.8 hPa West 4.7 km/h 20.1 km/h 67 % 0.0 mm
12:45 19.2 °C 13.0 °C 1016.1 hPa West 8.7 km/h 17.7 km/h 68 % 0.0 mm
12:51 19.1 °C 13.0 °C 1016.1 hPa WSW 20.1 km/h 20.6 km/h 66 % 0.0 mm
12:56 20.3 °C 14.0 °C 1016.1 hPa West 20.9 km/h 21.2 km/h 67 % 0.0 mm
13:01 20.5 °C 14.0 °C 1016.8 hPa WNW 6.9 km/h 21.9 km/h 66 % 0.0 mm
13:06 20.7 °C 13.0 °C 1016.8 hPa WNW 13.7 km/h 21.9 km/h 61 % 0.0 mm
13:11 20.4 °C 12.0 °C 1016.8 hPa West 20.1 km/h 23.0 km/h 59 % 0.0 mm
13:16 20.7 °C 13.0 °C 1016.1 hPa West 9.3 km/h 23.0 km/h 62 % 0.0 mm
13:21 21.3 °C 12.0 °C 1016.1 hPa West 27.0 km/h 27.0 km/h 56 % 0.0 mm
13:26 20.1 °C 11.0 °C 1016.1 hPa West 16.6 km/h 28.5 km/h 57 % 0.0 mm
13:31 20.1 °C 12.0 °C 1016.1 hPa West 18.0 km/h 28.5 km/h 60 % 0.0 mm
13:36 20.6 °C 13.0 °C 1016.1 hPa West 13.0 km/h 24.5 km/h 59 % 0.0 mm
13:41 21.1 °C 13.0 °C 1016.1 hPa West 16.9 km/h 28.8 km/h 58 % 0.0 mm
13:46 20.1 °C 11.0 °C 1016.8 hPa West 25.6 km/h 28.8 km/h 54 % 0.0 mm
13:51 19.4 °C 11.0 °C 1016.8 hPa West 10.5 km/h 31.7 km/h 58 % 0.0 mm
13:56 19.7 °C 12.0 °C 1016.8 hPa WSW 24.5 km/h 31.7 km/h 60 % 0.0 mm
14:01 20.5 °C 13.0 °C 1016.8 hPa West 25.3 km/h 25.3 km/h 60 % 0.0 mm
14:06 21.2 °C 13.0 °C 1016.8 hPa West 21.9 km/h 25.3 km/h 59 % 0.0 mm
14:11 21.3 °C 12.0 °C 1016.8 hPa WNW 19.5 km/h 27.4 km/h 55 % 0.0 mm
14:16 21.5 °C 12.0 °C 1016.8 hPa SW 15.4 km/h 28.0 km/h 54 % 0.0 mm
14:21 21.8 °C 12.0 °C 1016.8 hPa West 20.6 km/h 28.0 km/h 53 % 0.0 mm
14:26 21.7 °C 11.0 °C 1016.8 hPa West 16.9 km/h 24.8 km/h 51 % 0.0 mm
14:31 22.2 °C 12.0 °C 1016.8 hPa WSW 14.0 km/h 28.0 km/h 51 % 0.0 mm
14:36 22.1 °C 11.0 °C 1016.8 hPa West 16.3 km/h 28.0 km/h 49 % 0.0 mm
14:41 22.1 °C 11.0 °C 1016.8 hPa WSW 20.1 km/h 24.8 km/h 48 % 0.0 mm
14:46 22.4 °C 11.0 °C 1018.2 hPa West 24.8 km/h 28.8 km/h 48 % 0.0 mm
14:51 22.3 °C 11.0 °C 1018.2 hPa WSW 19.8 km/h 28.8 km/h 48 % 0.0 mm
14:57 21.9 °C 10.0 °C 1018.2 hPa West 25.3 km/h 28.5 km/h 47 % 0.0 mm
15:02 22.2 °C 10.0 °C 1016.8 hPa West 13.7 km/h 27.4 km/h 46 % 0.0 mm
15:07 21.5 °C 10.0 °C 1016.8 hPa West 16.9 km/h 27.4 km/h 46 % 0.0 mm
15:12 21.3 °C 9.0 °C 1016.8 hPa WSW 20.6 km/h 24.5 km/h 46 % 0.0 mm
15:17 21.3 °C 10.0 °C 1018.2 hPa WSW 8.7 km/h 24.8 km/h 48 % 0.0 mm
15:22 21.0 °C 9.0 °C 1018.2 hPa WNW 12.6 km/h 25.6 km/h 47 % 0.0 mm
15:27 21.1 °C 9.0 °C 1018.2 hPa WNW 13.0 km/h 28.8 km/h 47 % 0.0 mm
15:32 21.6 °C 10.0 °C 1018.2 hPa WSW 26.7 km/h 28.8 km/h 47 % 0.0 mm
15:37 21.9 °C 10.0 °C 1018.2 hPa West 20.9 km/h 28.5 km/h 47 % 0.0 mm
15:42 22.3 °C 11.0 °C 1018.2 hPa West 37.8 km/h 37.8 km/h 48 % 0.0 mm
15:47 21.8 °C 9.0 °C 1018.2 hPa West 14.8 km/h 37.8 km/h 44 % 0.0 mm
15:52 21.1 °C 9.0 °C 1018.2 hPa West 16.9 km/h 37.8 km/h 45 % 0.0 mm
15:57 21.8 °C 10.0 °C 1018.2 hPa WSW 17.7 km/h 28.0 km/h 46 % 0.0 mm
16:02 21.5 °C 9.0 °C 1018.2 hPa WSW 23.8 km/h 28.5 km/h 45 % 0.0 mm
16:07 21.1 °C 9.0 °C 1018.2 hPa West 14.8 km/h 28.5 km/h 47 % 0.0 mm
16:12 21.7 °C 10.0 °C 1018.2 hPa WSW 19.1 km/h 23.8 km/h 48 % 0.0 mm
16:17 21.4 °C 9.0 °C 1018.8 hPa SSE 9.3 km/h 31.4 km/h 46 % 0.0 mm
16:22 21.4 °C 9.0 °C 1018.8 hPa West 16.6 km/h 31.4 km/h 46 % 0.0 mm
16:27 21.4 °C 10.0 °C 1018.8 hPa WNW 20.9 km/h 29.9 km/h 47 % 0.0 mm
16:32 21.2 °C 10.0 °C 1018.8 hPa West 27.7 km/h 32.0 km/h 47 % 0.0 mm
16:37 20.6 °C 9.0 °C 1018.8 hPa West 24.8 km/h 32.0 km/h 48 % 0.0 mm
16:43 21.1 °C 10.0 °C 1018.8 hPa WSW 28.5 km/h 31.7 km/h 49 % 0.0 mm
16:48 21.4 °C 10.0 °C 1018.2 hPa WSW 17.7 km/h 31.7 km/h 49 % 0.0 mm
16:53 21.4 °C 10.0 °C 1018.2 hPa WSW 17.7 km/h 31.4 km/h 49 % 0.0 mm
16:58 20.6 °C 9.0 °C 1018.2 hPa WSW 24.8 km/h 32.0 km/h 48 % 0.0 mm
17:03 20.5 °C 9.0 °C 1018.8 hPa West 16.3 km/h 32.0 km/h 48 % 0.0 mm
17:08 20.8 °C 9.0 °C 1018.8 hPa West 31.4 km/h 31.4 km/h 48 % 0.0 mm
17:13 20.9 °C 10.0 °C 1018.8 hPa WSW 17.7 km/h 38.1 km/h 50 % 0.0 mm
17:18 20.3 °C 9.0 °C 1018.8 hPa SW 24.8 km/h 38.1 km/h 49 % 0.0 mm
17:23 20.0 °C 9.0 °C 1018.8 hPa West 16.9 km/h 34.3 km/h 50 % 0.0 mm
17:28 20.6 °C 11.0 °C 1018.8 hPa West 29.9 km/h 34.3 km/h 52 % 0.0 mm
17:33 20.2 °C 10.0 °C 1018.8 hPa West 17.2 km/h 29.9 km/h 51 % 0.0 mm
17:38 20.0 °C 10.0 °C 1018.8 hPa WSW 17.7 km/h 28.5 km/h 53 % 0.0 mm
17:43 19.7 °C 11.0 °C 1018.8 hPa West 21.2 km/h 28.5 km/h 56 % 0.0 mm
17:48 20.2 °C 11.0 °C 1018.8 hPa WSW 36.0 km/h 38.1 km/h 56 % 0.0 mm
17:53 20.0 °C 11.0 °C 1018.8 hPa West 23.0 km/h 38.1 km/h 57 % 0.0 mm
17:58 19.4 °C 10.0 °C 1018.8 hPa West 13.7 km/h 32.0 km/h 56 % 0.0 mm
18:03 19.2 °C 11.0 °C 1018.8 hPa West 21.2 km/h 32.0 km/h 58 % 0.0 mm
18:08 19.3 °C 11.0 °C 1018.8 hPa West 11.6 km/h 28.5 km/h 57 % 0.0 mm
18:09 19.4 °C 11.0 °C 1018.8 hPa WSW 22.7 km/h 28.5 km/h 57 % 0.0 mm
18:14 20.0 °C 12.0 °C 1018.8 hPa West 13.0 km/h 27.4 km/h 59 % 0.0 mm
18:19 20.2 °C 11.0 °C 1018.8 hPa WNW 23.3 km/h 37.0 km/h 55 % 0.0 mm
18:24 20.0 °C 10.0 °C 1018.8 hPa SW 20.6 km/h 37.0 km/h 53 % 0.0 mm
18:29 19.9 °C 11.0 °C 1018.8 hPa WSW 27.7 km/h 32.8 km/h 55 % 0.0 mm
18:34 19.9 °C 11.0 °C 1019.9 hPa West 15.8 km/h 32.8 km/h 57 % 0.0 mm
18:39 19.8 °C 11.0 °C 1019.9 hPa West 30.2 km/h 35.2 km/h 56 % 0.0 mm
18:45 19.7 °C 10.0 °C 1019.9 hPa West 28.0 km/h 37.8 km/h 55 % 0.0 mm
18:50 19.6 °C 10.0 °C 1018.8 hPa West 35.6 km/h 37.8 km/h 55 % 0.0 mm
18:55 19.2 °C 10.0 °C 1018.8 hPa West 23.8 km/h 36.7 km/h 54 % 0.0 mm
19:00 18.9 °C 11.0 °C 1018.8 hPa WSW 17.2 km/h 32.0 km/h 58 % 0.0 mm
19:05 19.2 °C 11.0 °C 1018.8 hPa WSW 19.5 km/h 33.5 km/h 59 % 0.0 mm
19:10 19.5 °C 11.0 °C 1018.8 hPa West 27.7 km/h 33.5 km/h 58 % 0.0 mm
19:15 19.2 °C 11.0 °C 1018.8 hPa West 17.7 km/h 29.1 km/h 59 % 0.0 mm
19:20 19.1 °C 11.0 °C 1018.2 hPa SW 27.7 km/h 32.8 km/h 59 % 0.0 mm
19:25 19.2 °C 11.0 °C 1018.2 hPa West 17.2 km/h 32.8 km/h 59 % 0.0 mm
19:30 19.0 °C 11.0 °C 1018.8 hPa WSW 14.3 km/h 33.5 km/h 59 % 0.0 mm
19:35 18.9 °C 11.0 °C 1018.8 hPa WSW 20.1 km/h 33.5 km/h 61 % 0.0 mm
19:40 18.7 °C 12.0 °C 1018.8 hPa WSW 12.6 km/h 30.6 km/h 63 % 0.0 mm
19:45 18.5 °C 12.0 °C 1018.8 hPa WSW 24.8 km/h 31.4 km/h 64 % 0.0 mm
19:50 18.2 °C 12.0 °C 1018.8 hPa West 16.6 km/h 31.4 km/h 65 % 0.0 mm
19:55 17.9 °C 12.0 °C 1018.8 hPa West 16.9 km/h 28.0 km/h 66 % 0.0 mm
20:00 17.7 °C 12.0 °C 1018.8 hPa West 13.7 km/h 28.0 km/h 67 % 0.0 mm
20:05 17.4 °C 12.0 °C 1018.8 hPa WSW 17.2 km/h 19.8 km/h 69 % 0.0 mm
20:10 17.3 °C 12.0 °C 1018.8 hPa West 23.8 km/h 23.8 km/h 70 % 0.0 mm
20:15 17.2 °C 12.0 °C 1018.8 hPa WSW 16.6 km/h 23.8 km/h 71 % 0.0 mm
20:20 17.0 °C 12.0 °C 1018.8 hPa WSW 12.6 km/h 20.1 km/h 71 % 0.0 mm
20:25 17.0 °C 12.0 °C 1018.8 hPa West 10.5 km/h 19.8 km/h 72 % 0.0 mm
20:30 16.9 °C 12.0 °C 1018.8 hPa WSW 17.2 km/h 20.6 km/h 73 % 0.0 mm
20:35 16.8 °C 12.0 °C 1018.8 hPa West 20.9 km/h 22.4 km/h 73 % 0.0 mm
20:40 16.8 °C 12.0 °C 1018.8 hPa West 17.2 km/h 22.4 km/h 74 % 0.0 mm
20:45 16.6 °C 13.0 °C 1018.8 hPa West 9.0 km/h 20.9 km/h 75 % 0.0 mm
20:51 16.5 °C 13.0 °C 1018.8 hPa West 11.6 km/h 20.9 km/h 76 % 0.0 mm
20:56 16.4 °C 12.0 °C 1018.8 hPa WSW 11.9 km/h 20.9 km/h 76 % 0.0 mm
21:00 16.3 °C 13.0 °C 1019.9 hPa West 12.2 km/h 16.6 km/h 77 % 0.0 mm
21:06 16.1 °C 12.0 °C 1019.9 hPa West 7.9 km/h 15.8 km/h 78 % 0.0 mm
21:11 16.0 °C 13.0 °C 1019.9 hPa West 12.6 km/h 13.7 km/h 79 % 0.0 mm
21:16 16.0 °C 13.0 °C 1019.9 hPa West 14.0 km/h 20.9 km/h 79 % 0.0 mm
21:21 15.9 °C 13.0 °C 1019.9 hPa WSW 13.0 km/h 20.9 km/h 81 % 0.0 mm
21:26 15.9 °C 13.0 °C 1019.9 hPa West 11.9 km/h 17.7 km/h 81 % 0.0 mm
21:31 15.8 °C 13.0 °C 1019.9 hPa WSW 9.7 km/h 17.7 km/h 82 % 0.0 mm
21:36 15.7 °C 13.0 °C 1019.9 hPa WSW 17.7 km/h 17.7 km/h 82 % 0.0 mm
21:41 15.6 °C 13.0 °C 1019.9 hPa West 10.8 km/h 17.7 km/h 82 % 0.0 mm
21:46 15.6 °C 13.0 °C 1019.9 hPa West 7.6 km/h 17.7 km/h 82 % 0.0 mm
21:51 15.4 °C 13.0 °C 1020.9 hPa WSW 9.0 km/h 14.0 km/h 82 % 0.0 mm
21:56 15.3 °C 13.0 °C 1020.9 hPa WSW 10.1 km/h 11.6 km/h 82 % 0.0 mm
22:01 15.2 °C 13.0 °C 1020.9 hPa WSW 9.0 km/h 11.9 km/h 83 % 0.0 mm
22:06 15.1 °C 12.0 °C 1020.9 hPa WSW 12.2 km/h 15.8 km/h 83 % 0.0 mm
22:11 15.0 °C 13.0 °C 1020.9 hPa WSW 9.7 km/h 15.8 km/h 84 % 0.0 mm
22:16 14.8 °C 12.0 °C 1020.9 hPa WSW 7.9 km/h 12.2 km/h 84 % 0.0 mm
22:21 14.7 °C 12.0 °C 1019.9 hPa WSW 7.6 km/h 10.5 km/h 84 % 0.0 mm
22:26 14.5 °C 12.0 °C 1019.9 hPa West 4.0 km/h 9.3 km/h 84 % 0.0 mm
22:31 14.4 °C 12.0 °C 1020.9 hPa WSW 7.6 km/h 9.7 km/h 85 % 0.0 mm
22:36 14.3 °C 13.0 °C 1020.9 hPa WSW 6.4 km/h 11.9 km/h 87 % 0.0 mm
22:41 14.2 °C 13.0 °C 1020.9 hPa WSW 5.5 km/h 11.9 km/h 87 % 0.0 mm
22:46 14.0 °C 12.0 °C 1020.9 hPa WSW 4.0 km/h 9.7 km/h 87 % 0.0 mm
22:51 13.9 °C 12.0 °C 1020.9 hPa Calm   10.8 km/h 87 % 0.0 mm
22:56 13.8 °C 12.0 °C 1020.9 hPa Calm   10.8 km/h 88 % 0.0 mm
23:01 13.8 °C 12.0 °C 1020.9 hPa West 6.9 km/h 9.7 km/h 89 % 0.0 mm
23:06 13.9 °C 13.0 °C 1020.9 hPa WSW 9.7 km/h 12.2 km/h 91 % 0.0 mm
23:11 14.0 °C 13.0 °C 1020.9 hPa WSW 10.1 km/h 14.0 km/h 91 % 0.0 mm
23:17 14.1 °C 13.0 °C 1020.9 hPa WSW 11.9 km/h 14.0 km/h 92 % 0.0 mm
23:22 14.2 °C 13.0 °C 1020.9 hPa SW 1.4 km/h 13.0 km/h 92 % 0.0 mm
23:27 14.2 °C 13.0 °C 1020.9 hPa WSW 13.7 km/h 14.0 km/h 92 % 0.0 mm
23:32 14.2 °C 13.0 °C 1020.9 hPa WSW 16.9 km/h 16.9 km/h 92 % 0.0 mm
23:37 14.3 °C 13.0 °C 1020.9 hPa SW 9.7 km/h 19.5 km/h 93 % 0.0 mm
23:42 14.3 °C 13.0 °C 1020.9 hPa SW 6.1 km/h 19.5 km/h 93 % 0.0 mm
23:47 14.3 °C 13.0 °C 1020.9 hPa West 13.7 km/h 19.1 km/h 93 % 0.0 mm
23:52 14.3 °C 13.0 °C 1020.9 hPa WSW 10.1 km/h 13.7 km/h 93 % 0.0 mm
23:57 14.3 °C 13.0 °C 1020.9 hPa WSW 6.4 km/h 14.0 km/h 93 % 0.0 mm
Le Gheer Warneton
Courtoisie de Weather Underground - 2.25 mb

Mise a jour : 16-12-17 12:12:11
Généré par Cumulus 1.9.4 (1099)